User: anonymous   Login
Location: Fort Wayne
(41.1310°N, 85.1290°W)
Time: 07:20:19
(UTC-05:00)
Language:

Cosmos 1000 Rocket - Orbit

View from above orbital plane
View from above orbital plane
View from above satellite
View from above satellite

Ground track
Ground track

The orbit data is extracted from the following two-line orbital elements,

1 10777U 78034B   15026.87634462  .00000007  00000-0 -89036-5 0  4374
2 10777 082.9449 159.3590 0027457 121.0910 034.8967 13.77321928850307
Epoch (UTC): 26 January 2015 21:01:56
Eccentricity: 0.0027457
inclination: 82.9449°
perigee height: 953 km
apogee height: 993 km
right ascension of ascending node: 159.3590°
argument of perigee: 121.0910°
revolutions per day: 13.77321928
mean anomaly at epoch: 34.8967°
orbit number at epoch: 85030

The dashed part of the orbit path shows where the satellite is in the earth's shadow,  

DLR